Home   Weather   Kallithea   Past weeks

Flag for Greece Past Weather in Kallithea, Greece — Yesterday and Last 2 Weeks

Now
41 °F

Clear.


Feels Like: 38 °F
Forecast: 47 / 64 °F
Wind: 5 mph from North

Location: Elefsis Airport

Current Time: Dec 10, 2016 at 1:10:20 am

Latest Report: Dec 10, 2016 at 12:50 am


Visibility: 10 mi

Pressure: 30.27 "Hg

Humidity: 87%

Dew Point: 37 °F

Location of KallitheaLocation

Past Weather in Kallithea — Graph

°F

Kallithea Temperature Yesterday

Maximum temperature yesterday: 59 °F (at 2:50 pm)
Minimum temperature yesterday: 36 °F (at 2:50 am)
Average temperature yesterday: 45 °F

High & Low Weather Summary for the Past Weeks

 TemperatureHumidityPressure
High66 °F (Nov 27, 9:50 am)94% (Nov 27, 1:20 am)30.66 "Hg (Nov 27, 1:20 am)
Low36 °F (Dec 9, 2:50 am)30% (Dec 1, 1:50 pm)27.05 "Hg (Dec 9, 6:50 pm)
Average52 °F68%30.16 "Hg
* Reported Nov 24 11:20 pm — Dec 9 11:50 pm, Kallithea, Weather by CustomWeather, © 2016

Note: Actual official high and low records may vary slightly from our data, if they occured in-between our weather recording intervals... More about our weather records

Advertising

Kallithea Weather History for the Previous 24 Hours

Scroll right to see more
 ConditionsComfort  
Time TempWeatherWind HumidityBarometerVisibility
11:50 pm
Fri, Dec 9
43 °FClear.3 mph81%30.30 "Hg10 mi
11:20 pm43 °FClear.3 mph81%30.30 "Hg10 mi
10:50 pm43 °FClear.No wind81%30.30 "Hg10 mi
10:20 pm41 °FClear.5 mph87%30.30 "Hg10 mi
9:50 pm43 °FClear.5 mph87%30.30 "Hg10 mi
9:20 pm43 °FClear.5 mph81%30.30 "Hg10 mi
8:50 pm43 °FClear.No wind87%30.30 "Hg10 mi
8:20 pm43 °FClear.3 mph87%30.30 "Hg10 mi
7:50 pm45 °FClear.No wind81%30.30 "Hg10 mi
7:20 pm45 °FClear.No wind81%30.30 "Hg10 mi
6:50 pm46 °FClear.No wind76%27.05 "Hg10 mi
6:20 pm46 °FClear.3 mph82%30.30 "Hg10 mi
5:50 pm50 °FClear.No wind71%30.30 "Hg10 mi
5:20 pm54 °FClear.No wind63%30.30 "Hg10 mi
4:50 pm54 °FSunny.No wind63%30.30 "Hg10 mi
4:20 pm57 °FSunny.No wind55%30.33 "Hg10 mi
3:50 pm57 °FSunny.No wind55%30.33 "Hg10 mi
2:50 pm59 °FSunny.No wind48%30.33 "Hg10 mi
2:20 pm57 °FSunny.No wind51%30.33 "Hg10 mi
1:50 pm57 °FSunny.No wind51%30.36 "Hg10 mi
1:20 pm55 °FSunny.No wind44%30.39 "Hg10 mi
12:50 pm55 °FSunny.No wind44%30.39 "Hg10 mi
12:20 pm54 °FSunny.No wind51%30.39 "Hg10 mi
11:50 am54 °FSunny.No wind51%30.39 "Hg10 mi
11:20 am52 °FSunny.No wind54%30.42 "Hg10 mi
10:50 am52 °FSunny.No wind54%30.42 "Hg10 mi
10:20 am48 °FSunny.No wind58%30.45 "Hg10 mi
9:50 am46 °FSunny.No wind62%30.45 "Hg10 mi
9:20 am43 °FSunny.5 mph71%30.45 "Hg10 mi
8:50 am41 °FSunny.No wind76%30.45 "Hg10 mi
8:20 am36 °FSunny.5 mph87%30.45 "Hg10 mi
7:50 am36 °FPassing clouds.5 mph87%30.45 "HgN/A
7:20 am36 °FPassing clouds.No wind87%30.45 "HgN/A
6:50 am36 °FPassing clouds.No wind87%30.45 "HgN/A
6:20 am36 °FPassing clouds.No wind81%30.45 "HgN/A
5:20 am36 °FPassing clouds.No wind81%30.45 "HgN/A
4:50 am36 °FPassing clouds.No wind87%30.48 "HgN/A
4:20 am37 °FPassing clouds.No wind81%30.48 "HgN/A
3:50 am36 °FPassing clouds.3 mph87%30.48 "HgN/A
3:20 am36 °FPassing clouds.5 mph81%30.48 "HgN/A
2:50 am36 °FPassing clouds.3 mph81%30.51 "HgN/A
2:20 am39 °FPassing clouds.No wind75%30.51 "HgN/A
1:50 am39 °FPassing clouds.5 mph75%30.51 "HgN/A
1:20 am39 °FPassing clouds.6 mph75%30.51 "HgN/A
Weather by CustomWeather, © 2016

See weather overviewHow to use our weather pages